Sign In / Sign Up
 
 
Long Long Journey Regatta. Leg 64. 23/03 - 29/03



Race Date (UTC) # I place II place III place Track
Race3949 2020-03-26 20:31:37 8 snipe JJ Winch
Race3948 2020-03-26 20:31:11 8 ALICE Restore hope Marco Polo
Race3947 2020-03-26 20:30:18 8 RCLaser27 AleRugbyLionsLi The Spirit
Race3946 2020-03-26 20:29:55 8 Platu Worlds 2020 allter MANARA
Race3945 2020-03-26 20:28:07 8 spector cãochupandomanga A28
Race3944 2020-03-26 20:27:00 8 figufo ITA23 Kona two
Race3943 2020-03-26 20:26:25 8 MicroMagic JJ layline
Race3942 2020-03-26 20:25:51 8 Polina snipe STEX
Race3941 2020-03-26 20:24:55 8 AleRugbyLionsLi The Spirit RCLaser27
Race3940 2020-03-26 20:24:29 8 ELBETICO Morpheus Pistigula
Race3939 2020-03-26 20:24:15 8 ALP Davos_CZE Tequila
Race3938 2020-03-26 20:23:36 8 cãochupandomanga sy unknown suka
Race3937 2020-03-26 20:22:37 8 BORA RN Sy Rokha Platu Worlds 2020
Race3936 2020-03-26 20:21:10 8 Maria puttana figufo Fabbbbbbbbbbb153939
Race3935 2020-03-26 20:20:34 8 shenandoa MicroMagic ita54
Race3934 2020-03-26 20:20:11 8 Lippi & bully ITA23 Polina
Race3933 2020-03-26 20:19:04 8 The Spirit ALICE Marco Polo
Race3932 2020-03-26 20:18:28 8 Damned idiot ALP Миша
Race3931 2020-03-26 20:17:41 8 Amateur spector suka
Race3930 2020-03-26 20:16:54 8 BORA RN A28 Platu Worlds 2020
Race3929 2020-03-26 20:15:23 8 Maria puttana Nik Restore hope
Race3928 2020-03-26 20:14:28 8 Saba13 X X X sevenB
Race3927 2020-03-26 20:13:24 8 The Spirit Yamique Lippi & bully
Race3926 2020-03-26 20:12:45 8 Damned idiot RCLaser27 bolina74
Race3925 2020-03-26 20:11:48 8 spector Pistigula Миша
Race3924 2020-03-26 20:11:27 8 Molineasails mustafa bogablu
Race3923 2020-03-26 20:10:36 8 BORA RN Etscho Ali del vento
Race3922 2020-03-26 20:09:10 8 Maria puttana Nik Norman
Race3921 2020-03-26 20:08:07 8 sevenB X X X Sy Rokha
Race3920 2020-03-26 20:07:45 8 TARAWA The Spirit Lippi & bully
Race3919 2020-03-26 20:07:03 8 fastimprove Morpheus Lilla My
Race3918 2020-03-26 20:06:17 8 Damned idiot spector Y.C. Tempio Pausania
Race3917 2020-03-26 20:05:17 8 mustafa Molineasails Drifter
Race3916 2020-03-26 20:03:24 8 ita8323 SicilyKayak bogablu
Race3915 2020-03-26 20:02:36 8 Fabbbbbbbbbbb153939 Alb_YCBE SailorBebs
Race3914 2020-03-26 20:01:54 8 midnightsun The Spirit Polina
Race3913 2020-03-26 20:01:32 8 fastimprove Morpheus Sy Rokha
Race3912 2020-03-26 20:00:52 8 spector Damned idiot Tired of Winning
Race3911 2020-03-26 20:00:13 8 JJ Миша Y.C. Tempio Pausania
Race3910 2020-03-26 19:59:21 8 Pirillina 1 Norman Ambaradan
Race3909 2020-03-26 19:57:52 8 SailAlong Amateur Tigerloo34
Race3908 2020-03-26 19:56:57 8 Bacchus2305 Fabbbbbbbbbbb153939 Lilla My
Race3907 2020-03-26 19:56:20 8 The Spirit Trump virus SailorBebs
Race3906 2020-03-26 19:55:54 8 spector gam tov big'o ita8323
Race3905 2020-03-26 19:55:06 8 Damned idiot fastimprove Freebird
Race3904 2020-03-26 19:54:00 8 bolina74 Y.C. Tempio Pausania RG2020
Race3903 2020-03-26 19:52:38 8 cvA moro fragolina Costanza
Race3902 2020-03-26 19:51:37 8 Bacchus2305 ELIOTLUCAS 1 Lilla My
Race3901 2020-03-26 19:50:44 8 SicilyKayak Fabbbbbbbbbbb153939 PL334
Race3900 2020-03-26 19:49:46 8 Sy Rokha Amateur spector
Race3899 2020-03-26 19:48:31 8 Dyango Миша gam tov big'o
Race3898 2020-03-26 19:47:54 8 Etscho Adelahara bolina74
Race3897 2020-03-26 19:46:37 8 Pi.emme laser2 FAIR PLAY PLEASE
Race3896 2020-03-26 19:45:49 8 Morpheus Lilla My Pistigula
Race3895 2020-03-26 19:45:13 8 Fancy P42 PL334
Race3894 2020-03-26 19:44:14 8 Crimea Bacchus2305 SicilyKayak
Race3893 2020-03-26 19:43:20 8 Altair Maurobar Happy Hour
Race3892 2020-03-26 19:42:37 8 Sciaccalimone Dyango Bea
Race3891 2020-03-26 19:41:35 8 cvA Wauuu Freebird
Race3890 2020-03-26 19:40:58 8 Kraken II BORA RN ITA 77
Race3889 2020-03-26 19:39:51 8 Woody FAIR PLAY PLEASE PL334
Race3888 2020-03-26 19:39:20 8 Fancy Ciambercu P42
Race3887 2020-03-26 19:37:55 8 Platu Worlds 2020 Crimea MANARA
Race3886 2020-03-26 19:37:14 3 Maurobar Luna Gialla Nikita
Race3885 2020-03-26 19:36:34 8 Bacchus2305 Dyango freetime
Race3884 2020-03-26 19:35:36 8 BORA RN cvA Sy Rokha
Race3883 2020-03-26 19:34:37 8 Wendy CAQU Kraken II
Race3882 2020-03-26 19:33:39 8 Tired of Winning Woody Morpheus
Race3881 2020-03-26 19:32:50 8 Platu Worlds 2020 morjeplovec Crimea
Race3880 2020-03-26 19:31:28 8 Eisbaren Beauport ITA23 Stella dell'Est
Race3879 2020-03-26 19:30:42 8 Maurobar Bea ELIOTLUCAS 1
Race3878 2020-03-26 19:29:38 8 BORA RN revenge Bele'
Race3877 2020-03-26 19:28:23 5 laser2 Kraken II jack
Race3876 2020-03-26 19:27:54 8 Oldnick Crimea morjeplovec
Race3875 2020-03-26 19:25:41 7 Morpheus Eisbaren Beauport P42
Race3874 2020-03-26 19:24:15 5 BORA RN Big Rift Kraken II
Race3873 2020-03-26 19:23:23 8 revenge Albarone cap harlock
Race3872 2020-03-26 19:22:23 7 COFRADE Oldnick Crimea
Race3871 2020-03-26 19:21:41 8 ALFREDO ITA 1848 Seminole
Race3870 2020-03-26 19:20:45 8 P42 Ita33 Saba13
Race3869 2020-03-26 19:19:16 7 Bele' ITA23 Eisbaren Beauport
Race3868 2020-03-26 19:18:30 3 000 Salty Freebird
Race3867 2020-03-26 19:17:13 8 revenge Albarone Big Rift
Race3866 2020-03-26 19:16:04 8 ALFREDO COFRADE ITA 1848
Race3865 2020-03-26 19:15:35 8 Pi.emme Seminole laser2
Race3864 2020-03-26 19:13:47 8 So What P42 bangBang
Race3863 2020-03-26 19:11:58 8 GypsyBaron mustafa gangbang
Race3862 2020-03-26 19:10:53 8 Big Rift Xarda Superyacht
Race3861 2020-03-26 19:09:24 8 love laser2 ITA 1848
Race3860 2020-03-26 19:08:08 7 Karmar GypsyBaron bangBang
Race3859 2020-03-26 19:07:02 8 mustafa Bele' Stardust
Race3858 2020-03-26 19:05:44 8 revenge old school Y.C. Tempio Pausania
Race3857 2020-03-26 19:04:19 8 Albarone laser2 CAQU
Race3856 2020-03-26 19:02:55 8 ALFREDO morjeplovec love
Race3855 2020-03-26 19:02:01 8 Corto Maltese PL334 GypsyBaron
Race3854 2020-03-26 19:00:14 8 Bacchus2305 OOO Trabucat
Race3853 2020-03-26 18:59:04 8 revenge NFUN Y.C. Tempio Pausania
Race3852 2020-03-26 18:57:35 8 Albarone morjeplovec Superyacht
Race3851 2020-03-26 18:56:21 8 gangbang BRA 48 YouSuck
Race3850 2020-03-26 18:55:16 8 love Indefensible Hobie14